WetterOnline ( https://www.wetteronline.de )

Wetter aktuell Casoni

Aktuelles Wetter: Istrana (46m)

6-stündlich | Neueste Meldungen
Ortszeit Temperatur Wetter
Mi, 22.05. 14:00 21.0° C leichte Gewitter
Mi, 22.05. 8:00 15.6° C bedeckt
Mi, 22.05. 2:00 16.2° C leicht bewölkt
Di, 21.05. 20:00 18.8° C wolkig
Di, 21.05. 14:00 17.8° C Regen
Di, 21.05. 8:00 17.0° C leichter Regen
Di, 21.05. 2:00 17.2° C leichter Regen
Mo, 20.05. 20:00 21.6° C wolkig
Ortszeit Temperatur Wetter
Mi, 22.05. 19:00 16.6° C bewölkt, nach Regen
Mi, 22.05. 18:00 15.6° C leichter Regen
Mi, 22.05. 17:00 16.0° C leichte Gewitter
Mi, 22.05. 16:00 16.0° C leichte Gewitter
Mi, 22.05. 15:00 22.0° C leichte Gewitter
Mi, 22.05. 14:00 21.0° C leichte Gewitter
Mi, 22.05. 13:00 21.0° C wolkig
Ortszeit Relative Feuchte Sichtweite
Mi, 22.05. 14:00 76% 8 km
Mi, 22.05. 8:00 100% 4.5 km
Mi, 22.05. 2:00 98% 8 km
Di, 21.05. 20:00 89% 12 km
Di, 21.05. 14:00 97% 3.3 km
Di, 21.05. 8:00 97% 8 km
Di, 21.05. 2:00 95% 6 km
Mo, 20.05. 20:00 74% 10 km
Ortszeit Relative Feuchte Sichtweite
Mi, 22.05. 19:00 91% 9 km
Mi, 22.05. 18:00 90% 8 km
Mi, 22.05. 17:00 80% 8 km
Mi, 22.05. 16:00 70% 8 km
Mi, 22.05. 15:00 77% 8 km
Mi, 22.05. 14:00 76% 8 km
Mi, 22.05. 13:00 73% 8 km
Ortszeit Niederschlagsmenge Niederschlagsart
Mi, 22.05. 14:00 0.0 l/m2 in 6 Std. Gewitter, Regen
Mi, 22.05. 8:00 0.0 l/m2 in 12 Std. -
Mi, 22.05. 2:00 0.0 l/m2 in 6 Std. -
Di, 21.05. 20:00 0.0 l/m2 in 12 Std. Regen
Di, 21.05. 14:00 0.0 l/m2 in 6 Std. Regenschauer
Di, 21.05. 8:00 0.0 l/m2 in 12 Std. Regen
Di, 21.05. 2:00 0.0 l/m2 in 6 Std. Regen
Mo, 20.05. 20:00 0.0 l/m2 in 12 Std. -
Ortszeit Niederschlagsmenge Niederschlagsart
Mi, 22.05. 19:00 keine Meldung -
Mi, 22.05. 18:00 keine Meldung -
Mi, 22.05. 17:00 keine Meldung -
Mi, 22.05. 16:00 keine Meldung -
Mi, 22.05. 15:00 keine Meldung -
Mi, 22.05. 14:00 keine Meldung -
Mi, 22.05. 13:00 keine Meldung -
Ortszeit Stärke Spitze Richtung
km/h Bft. km/h Grad Sektor
Mi, 22.05. 14:00 7 2 - 190° S
Mi, 22.05. 8:00 6 1 - 60° NO
Mi, 22.05. 2:00 0 0 - - -
Di, 21.05. 20:00 7 2 - 80° O
Di, 21.05. 14:00 15 3 - 220° SW
Di, 21.05. 8:00 19 3 - 80° O
Di, 21.05. 2:00 11 2 - 50° NO
Mo, 20.05. 20:00 9 2 - 170° S
Ortszeit Stärke Spitze Richtung
km/h Bft. km/h Grad Sektor
Mi, 22.05. 19:00 20 4 - 180° S
Mi, 22.05. 18:00 4 1 - 140° SO
Mi, 22.05. 17:00 7 2 - 90° O
Mi, 22.05. 16:00 22 4 - 40° NO
Mi, 22.05. 15:00 13 3 - 200° S
Mi, 22.05. 14:00 7 2 - 190° S
Mi, 22.05. 13:00 17 3 - 110° O
Ortszeit Untergrenze Bedeckung Gattung
total tief tief mittel hoch
Mi, 22.05. 14:00 300 m 7/8 7/8 Cb - -
Mi, 22.05. 8:00 210 m 8/8 8/8 St - -
Mi, 22.05. 2:00 5400 m 3/8 3/8 - - Ci
Di, 21.05. 20:00 1200 m 5/8 4/8 Sc Ac -
Di, 21.05. 14:00 180 m 8/8 8/8 Sc - -
Di, 21.05. 8:00 210 m 8/8 8/8 Cu - -
Di, 21.05. 2:00 1200 m 8/8 8/8 Sc - -
Mo, 20.05. 20:00 750 m 7/8 1/8 Cu As -
Ortszeit Bedeckungsgrad in Achtel und Wolkenuntergrenze
Mi, 22.05. 19:00 1(600m) 4(900m) 5(2400m)
Mi, 22.05. 18:00 1(600m) 4(900m) 5(2400m)
Mi, 22.05. 17:00 2(600m) 5(900m)
Mi, 22.05. 16:00 3(600m) 5(900m)
Mi, 22.05. 15:00 2(600m) 3(900m) 5(2100m)
Mi, 22.05. 14:00 1(300m) 4(900m) 2(600m)
Mi, 22.05. 13:00 2(300m) 2(600m) 3(1500m)
Ortszeit Luftdruck NN (hPa) Tendenz (hPa in 3 Std.)
Mi, 22.05. 14:00 1012 - 0,1
Mi, 22.05. 8:00 1010 + 1,8
Mi, 22.05. 2:00 1008 + 0,5
Di, 21.05. 20:00 1006 + 0,1
Di, 21.05. 14:00 1006 - 0,1
Di, 21.05. 8:00 1006 - 0,1
Di, 21.05. 2:00 1009 - 1,0
Mo, 20.05. 20:00 1010 - 0,3
Ortszeit Luftdruck NN (hPa) Tendenz (hPa in 3 Std.)
Mi, 22.05. 19:00 1014 + 1,5
Mi, 22.05. 18:00 1013 + 1,0
Mi, 22.05. 17:00 1012 + 0,6
Mi, 22.05. 16:00 1012 + 0,5
Mi, 22.05. 15:00 1012 0,0
Mi, 22.05. 14:00 1012 - 0,1
Mi, 22.05. 13:00 1012 + 0,3
Ortszeit Schneehöhe (cm)
Mi, 22.05. 14:00 -
Mi, 22.05. 8:00 0
Mi, 22.05. 2:00 -
Di, 21.05. 20:00 -
Di, 21.05. 14:00 -
Di, 21.05. 8:00 0
Di, 21.05. 2:00 -
Mo, 20.05. 20:00 -
Ortszeit Schneehöhe (cm)
Mi, 22.05. 19:00 -
Mi, 22.05. 18:00 -
Mi, 22.05. 17:00 -
Mi, 22.05. 16:00 -
Mi, 22.05. 15:00 -
Mi, 22.05. 14:00 -
Mi, 22.05. 13:00 -
Link zu dieser Seite / Seite empfehlen

Das Wetter in ...